New Cumberland, PA

10:38 PM EDT on July 23, 2016 (GMT -0400)
Capital City

Weather History for KCXY - December, 2012

Change the Weather History Date:

Thursday, December 13, 2012

  Actual Average Record
Temperature  
Mean Temperature 35 °F -  
Max Temperature 45 °F 41 °F 66 °F (2015)
Min Temperature 25 °F 28 °F 6 °F (1960)
Degree Days  
Heating Degree Days 30    
Moisture  
Dew Point 24 °F    
Average Humidity 72    
Maximum Humidity 92    
Minimum Humidity 37    
Precipitation  
Precipitation 0.00 in - - ()
Sea Level Pressure  
Sea Level Pressure 30.43 in    
Wind  
Wind Speed 1 mph (WSW)    
Max Wind Speed 5 mph    
Max Gust Speed -    
Visibility 8 miles    
Events      
Averages and records for this station are not official NWS values.
T = Trace of Precipitation, MM = Missing Value Source: NWS Daily Summary

Daily Weather History Graph

Daily Weather History Graph

Search for Another Location

Airport or City:

Trip Planner

Search our weather history database for the weather conditions in past years. The results will help you decide how hot, cold, wet, or windy it might be!

Date:

Astronomy

Dec. 13, 2012 Rise Set
Actual Time 7:21 AM EST 4:42 PM EST
Civil Twilight 6:51 AM EST 5:12 PM EST
Nautical Twilight 6:16 AM EST 5:46 PM EST
Astronomical Twilight 5:43 AM EST 6:19 PM EST
Moon 7:27 AM EST (12/13) 5:22 PM EST (12/13)
Length of Visible Light 10h 21m
Length of Day
9h 20m
New Moon, 0% of the Moon is Illuminated
Dec 13
New Moon
Dec 20
First Quarter
Dec 28
Full
Jan 4
Last Quarter
Jan 11
New

Hourly Weather History & Observations

Time (EST) Temp. Windchill Dew Point Humidity Pressure Visibility Wind Dir Wind Speed Gust Speed Precip Events Conditions
12:56 AM 30.0 °F - 27.0 °F 88% 30.44 in 7.0 mi Calm Calm - N/A   Clear
1:56 AM 30.0 °F 26.5 °F 27.0 °F 88% 30.44 in 8.0 mi West 3.5 mph - N/A   Clear
2:56 AM 28.0 °F - 25.0 °F 88% 30.44 in 7.0 mi Calm Calm - N/A   Clear
3:56 AM 27.0 °F 21.6 °F 25.0 °F 92% 30.45 in 5.0 mi SW 4.6 mph - N/A   Clear
4:56 AM 27.0 °F 23.0 °F 25.0 °F 92% 30.45 in 7.0 mi WSW 3.5 mph - N/A   Clear
5:56 AM 26.1 °F - 24.1 °F 92% 30.46 in 6.0 mi Calm Calm - N/A   Clear
6:56 AM 25.0 °F - 21.9 °F 88% 30.48 in 6.0 mi Calm Calm - N/A   Clear
7:56 AM 25.0 °F - 23.0 °F 92% 30.49 in 4.0 mi Calm Calm - N/A   Clear
9:56 AM 35.1 °F 32.2 °F 27.0 °F 72% 30.50 in 8.0 mi West 3.5 mph - N/A   Clear
10:56 AM 39.0 °F - 28.0 °F 65% 30.50 in 9.0 mi Calm Calm - N/A   Clear
11:56 AM 42.1 °F - 24.1 °F 49% 30.46 in 10.0 mi Calm Calm - N/A   Clear
12:56 PM 44.1 °F - 21.9 °F 42% 30.45 in 10.0 mi Calm Calm - N/A   Clear
1:56 PM 44.1 °F - 19.9 °F 38% 30.42 in 10.0 mi Calm Calm - N/A   Clear
2:56 PM 45.0 °F - 19.9 °F 37% 30.40 in 10.0 mi Calm Calm - N/A   Clear
3:56 PM 43.0 °F 41.3 °F 21.0 °F 42% 30.39 in 10.0 mi East 3.5 mph - N/A   Clear
4:56 PM 39.0 °F - 23.0 °F 53% 30.40 in 10.0 mi Calm Calm - N/A   Clear
7:56 PM 32.0 °F - 24.1 °F 73% 30.39 in 10.0 mi Calm Calm - N/A   Clear
8:56 PM 28.9 °F - 23.0 °F 78% 30.37 in 10.0 mi Calm Calm - N/A   Clear
9:56 PM 28.0 °F 24.2 °F 23.0 °F 81% 30.36 in 10.0 mi WSW 3.5 mph - N/A   Clear
10:56 PM 28.0 °F - 23.0 °F 81% 30.36 in 10.0 mi Calm Calm - N/A   Clear
11:56 PM 25.0 °F - 21.9 °F 88% 30.35 in 9.0 mi Calm Calm - N/A   Clear